Flag for Switzerland Weather past 2 weeks in Schaffhausen, Schaffhausen, Switzerland

Now
62 °F

Mild.


Feels Like: 62 °F
Forecast: 44 / 68 °F
Wind: 10 mph from Northeast

Location: Zurich-Kloten

Current Time: May 23, 2015 at 4:37:31 PM

Latest Report: May 23, 2015 at 4:00 PM


Visibility: N/A

Pressure: 30.03 "Hg

Humidity: 46%

Dew point: 41 °F

Location of SchaffhausenLocation

Historic Weather in Schaffhausen — Graph

°F

Schaffhausen temperature yesterday

Maximum temperature yesterday: 61 °F (at 5:00 PM)
Minimum temperature yesterday: 43 °F (at 6:00 AM)
Average temperature yesterday: 53 °F

Past Weeks' High & Low Weather Summary

 TemperatureHumidityPressure
High81 °F (May 12, 3:00 PM)98% (May 18, 6:00 AM)30.39 "Hg (May 18, 6:00 AM)
Low43 °F (May 22, 6:00 AM)33% (May 10, 4:00 PM)29.72 "Hg (May 18, 6:00 PM)
Average57 °F72%30.10 "Hg
* Reported May 8 3:00 PM — May 23 3:00 PM, Schaffhausen, Weather by CustomWeather, © 2015

Note: Actual official high and low records may vary slightly from our data, if they occured in-between our weather recording intervals... More about our weather records

Advertising

Schaffhausen weather history for previous 24 hours

 ConditionsComfort  
Time TempWeatherWind HumidityBarometerVisibility
3:00 PM
Sat, May 23
61 °FRefreshingly cool.10 mph49%30.04 "HgN/A
2:00 PM61 °FOvercast.13 mph50%30.05 "Hg12 mi
1:00 PM60 °FRefreshingly cool.15 mph50%30.06 "HgN/A
12:00 PM59 °FRefreshingly cool.12 mph55%30.07 "HgN/A
11:00 AM58 °FOvercast.10 mph56%30.08 "Hg9 mi
10:00 AM56 °FRefreshingly cool.8 mph59%30.09 "HgN/A
9:00 AM53 °FCool.8 mph70%30.10 "HgN/A
8:00 AM49 °FFog.5 mph81%30.11 "Hg9 mi
7:00 AM47 °FCool.6 mph90%30.11 "HgN/A
6:00 AM45 °FCool.5 mph92%30.11 "HgN/A
4:00 AM46 °FCool.5 mph90%30.13 "HgN/A
3:00 AM44 °FQuite cool.5 mph93%30.14 "HgN/A
2:00 AM46 °FPassing clouds.3 mph90%30.15 "Hg9 mi
1:00 AM49 °FCool.5 mph86%30.16 "HgN/A
12:00 AM51 °FCool.3 mph77%30.17 "HgN/A
10:00 PM
Fri, May 22
55 °FCool.7 mph61%30.16 "HgN/A
9:00 PM56 °FRefreshingly cool.6 mph60%30.15 "HgN/A
8:00 PM58 °FPartly sunny.5 mph55%30.15 "Hg12 mi
7:00 PM58 °FRefreshingly cool.8 mph53%30.15 "HgN/A
6:00 PM61 °FRefreshingly cool.9 mph50%30.15 "HgN/A
5:00 PM61 °FPartly sunny.16 mph45%30.16 "Hg16 mi
4:00 PM59 °FRefreshingly cool.16 mph53%30.18 "HgN/A
Weather by CustomWeather, © 2015

See weather overviewHow to use our weather pages